| time (UTC) | temp C | wind direction | speed KPH | gust KPH | rain 1hr cm | rain 24hr cm | rain mn cm | humidity % | barometer mb |
| 20260906094054 | 11 | 322 | 0.0 | 0.0 | 0.00 | 0.00 | 0.00 | 89 | 1008.2 |
| 20260906093551 | 11 | 322 | 0.0 | 0.0 | 0.00 | 0.00 | 0.00 | 89 | 1008.2 |
| 20260906092550 | 11 | 322 | 0.0 | 0.0 | 0.00 | 0.00 | 0.00 | 89 | 1008.3 |
| 20260906092053 | 11 | 322 | 0.0 | 0.0 | 0.00 | 0.00 | 0.00 | 88 | 1008.3 |
| 20260906091548 | 12 | 322 | 0.0 | 0.0 | 0.00 | 0.00 | 0.00 | 88 | 1008.3 |
| 20260906091044 | 12 | 322 | 0.0 | 0.0 | 0.00 | 0.00 | 0.00 | 88 | 1008.4 |
| 20260906090540 | 12 | 322 | 0.0 | 0.0 | 0.00 | 0.00 | 0.00 | 88 | 1008.4 |
| 20260906090036 | 12 | 322 | 0.0 | 0.0 | 0.00 | 0.00 | 0.00 | 88 | 1008.4 |
| 20260906085535 | 12 | 322 | 0.0 | 0.0 | 0.00 | 0.00 | 0.00 | 88 | 1008.4 |
| 20260906085030 | 12 | 322 | 0.0 | 0.0 | 0.00 | 0.00 | 0.00 | 88 | 1008.4 |
| 20260906084026 | 12 | 322 | 0.0 | 0.0 | 0.00 | 0.00 | 0.00 | 87 | 1008.5 |
| 20260906083023 | 12 | 322 | 0.0 | 0.0 | 0.00 | 0.00 | 0.00 | 86 | 1008.5 |
| 20260906082514 | 12 | 322 | 0.0 | 0.0 | 0.00 | 0.00 | 0.00 | 86 | 1008.4 |
| 20260906082015 | 12 | 322 | 0.0 | 0.0 | 0.00 | 0.00 | 0.00 | 86 | 1008.4 |
| 20260906081509 | 12 | 322 | 0.0 | 0.0 | 0.00 | 0.00 | 0.00 | 85 | 1008.4 |
| 20260906081006 | 12 | 322 | 0.0 | 0.0 | 0.00 | 0.00 | 0.00 | 85 | 1008.5 |
| 20260906080509 | 12 | 322 | 0.0 | 0.0 | 0.00 | 0.00 | 0.00 | 85 | 1008.5 |
| 20260906075502 | 12 | 322 | 0.0 | 0.0 | 0.00 | 0.00 | 0.00 | 84 | 1008.7 |
| 20260906074958 | 12 | 322 | 0.0 | 0.0 | 0.00 | 0.00 | 0.00 | 84 | 1008.7 |
| 20260906074455 | 12 | 322 | 0.0 | 0.0 | 0.00 | 0.00 | 0.00 | 84 | 1008.7 |
| 20260906073955 | 12 | 322 | 0.0 | 0.0 | 0.00 | 0.00 | 0.00 | 83 | 1008.6 |
| 20260906073455 | 12 | 322 | 0.0 | 0.0 | 0.00 | 0.00 | 0.00 | 83 | 1008.6 |
| 20260906072956 | 12 | 322 | 0.0 | 0.0 | 0.00 | 0.00 | 0.00 | 82 | 1008.6 |
| 20260906071947 | 13 | 322 | 0.0 | 0.0 | 0.00 | 0.00 | 0.00 | 82 | 1008.7 |
| 20260906071446 | 13 | 322 | 0.0 | 0.0 | 0.00 | 0.00 | 0.00 | 81 | 1008.9 |
| 20260906070940 | 13 | 322 | 0.0 | 0.0 | 0.00 | 0.00 | 0.00 | 81 | 1008.7 |
| 20260906070434 | 13 | 322 | 0.0 | 0.0 | 0.00 | 0.00 | 0.00 | 82 | 1008.7 |
| 20260906065930 | 13 | 322 | 0.0 | 0.0 | 0.00 | 0.00 | 0.00 | 82 | 1008.7 |
| 20260906065429 | 13 | 322 | 0.0 | 0.0 | 0.00 | 0.00 | 0.00 | 82 | 1008.5 |
| 20260906064929 | 13 | 322 | 0.0 | 0.0 | 0.00 | 0.00 | 0.00 | 82 | 1008.5 |
| 20260906064424 | 13 | 322 | 0.0 | 0.0 | 0.00 | 0.00 | 0.00 | 82 | 1008.5 |
| 20260906063930 | 13 | 322 | 0.0 | 0.0 | 0.00 | 0.00 | 0.00 | 82 | 1008.6 |
| 20260906063422 | 13 | 322 | 0.0 | 0.0 | 0.00 | 0.00 | 0.00 | 82 | 1008.6 |
| 20260906062921 | 13 | 322 | 0.0 | 0.0 | 0.00 | 0.00 | 0.00 | 81 | 1008.6 |
| 20260906062419 | 13 | 322 | 0.0 | 0.0 | 0.00 | 0.00 | 0.00 | 81 | 1008.6 |
| 20260906061920 | 13 | 322 | 0.0 | 3.2 | 0.00 | 0.00 | 0.00 | 81 | 1008.6 |
| 20260906060918 | 13 | 322 | 0.0 | 1.6 | 0.00 | 0.00 | 0.00 | 81 | 1008.7 |
| 20260906060418 | 13 | 322 | 0.0 | 1.6 | 0.00 | 0.00 | 0.00 | 81 | 1008.7 |
| 20260906055917 | 14 | 322 | 0.0 | 3.2 | 0.00 | 0.00 | 0.00 | 81 | 1008.7 |
| 20260906055411 | 14 | 322 | 0.0 | 3.2 | 0.00 | 0.00 | 0.00 | 81 | 1009.0 |
| 20260906054906 | 14 | 322 | 0.0 | 0.0 | 0.00 | 0.00 | 0.00 | 82 | 1009.0 |
| 20260906054401 | 14 | 322 | 0.0 | 0.0 | 0.00 | 0.00 | 0.00 | 82 | 1009.0 |
| 20260906053356 | 15 | 322 | 0.0 | 3.2 | 0.00 | 0.00 | 0.00 | 83 | 1009.0 |
| 20260906052852 | 15 | 322 | 0.0 | 1.6 | 0.00 | 0.00 | 0.00 | 84 | 1009.0 |
| 20260906052352 | 15 | 322 | 0.0 | 3.2 | 0.00 | 0.00 | 0.00 | 84 | 1009.0 |
| 20260906051849 | 15 | 322 | 1.6 | 4.8 | 0.00 | 0.00 | 0.00 | 84 | 1009.0 |
| 20260906051349 | 15 | 322 | 1.6 | 4.8 | 0.00 | 0.00 | 0.00 | 83 | 1009.2 |
| 20260906050846 | 15 | 322 | 0.0 | 3.2 | 0.00 | 0.00 | 0.00 | 83 | 1009.2 |
| 20260906050343 | 15 | 322 | 0.0 | 0.0 | 0.00 | 0.00 | 0.00 | 82 | 1009.2 |
| 20260906045839 | 15 | 322 | 0.0 | 3.2 | 0.00 | 0.00 | 0.00 | 83 | 1009.0 |
| 20260906045338 | 15 | 322 | 0.0 | 3.2 | 0.00 | 0.00 | 0.00 | 82 | 1009.0 |
| 20260906044831 | 16 | 322 | 0.0 | 3.2 | 0.00 | 0.00 | 0.00 | 82 | 1009.0 |
| 20260906044330 | 16 | 322 | 1.6 | 4.8 | 0.00 | 0.00 | 0.00 | 83 | 1009.0 |
| 20260906043828 | 16 | 322 | 0.0 | 4.8 | 0.00 | 0.00 | 0.00 | 84 | 1009.0 |
| 20260906043325 | 16 | 322 | 0.0 | 1.6 | 0.00 | 0.00 | 0.00 | 83 | 1009.0 |
| 20260906042822 | 16 | 322 | 0.0 | 0.0 | 0.00 | 0.00 | 0.00 | 84 | 1008.9 |
| 20260906042319 | 16 | 322 | 0.0 | 0.0 | 0.00 | 0.00 | 0.00 | 84 | 1008.9 |
| 20260906041819 | 16 | 322 | 0.0 | 1.6 | 0.00 | 0.00 | 0.00 | 84 | 1008.9 |
| 20260906041317 | 16 | 322 | 1.6 | 6.4 | 0.00 | 0.00 | 0.00 | 84 | 1008.6 |
| 20260906040815 | 16 | 322 | 1.6 | 6.4 | 0.00 | 0.00 | 0.00 | 84 | 1008.6 |
| 20260906040310 | 16 | 322 | 1.6 | 6.4 | 0.00 | 0.00 | 0.00 | 84 | 1008.6 |
| 20260906035809 | 16 | 322 | 1.6 | 6.4 | 0.00 | 0.00 | 0.00 | 84 | 1008.4 |
| 20260906034805 | 16 | 323 | 3.2 | 6.4 | 0.00 | 0.00 | 0.00 | 85 | 1008.4 |
| 20260906034300 | 16 | 323 | 1.6 | 6.4 | 0.00 | 0.00 | 0.00 | 85 | 1008.2 |
| 20260906033257 | 17 | 324 | 0.0 | 4.8 | 0.00 | 0.00 | 0.00 | 84 | 1008.2 |
| 20260906032259 | 17 | 325 | 3.2 | 6.4 | 0.00 | 0.00 | 0.00 | 83 | 1008.0 |
| 20260906031754 | 17 | 325 | 3.2 | 6.4 | 0.00 | 0.00 | 0.00 | 83 | 1008.0 |
| 20260906031251 | 17 | 325 | 3.2 | 6.4 | 0.00 | 0.00 | 0.00 | 82 | 1008.0 |
| 20260906030750 | 18 | 325 | 3.2 | 6.4 | 0.00 | 0.00 | 0.00 | 82 | 1008.0 |
| 20260906030249 | 18 | 324 | 3.2 | 6.4 | 0.00 | 0.00 | 0.00 | 81 | 1008.0 |
| 20260906025748 | 18 | 320 | 3.2 | 6.4 | 0.00 | 0.00 | 0.00 | 81 | 1007.9 |
| 20260906025245 | 18 | 320 | 3.2 | 6.4 | 0.00 | 0.00 | 0.00 | 80 | 1007.9 |
| 20260906024745 | 18 | 320 | 3.2 | 6.4 | 0.00 | 0.00 | 0.00 | 80 | 1007.9 |
| 20260906024244 | 18 | 320 | 1.6 | 6.4 | 0.00 | 0.00 | 0.00 | 79 | 1007.8 |
| 20260906022735 | 19 | 320 | 4.8 | 9.7 | 0.00 | 0.00 | 0.00 | 79 | 1007.8 |
| 20260906021731 | 20 | 295 | 4.8 | 9.7 | 0.00 | 0.00 | 0.00 | 75 | 1007.8 |
| 20260906021228 | 20 | 302 | 4.8 | 11.3 | 0.00 | 0.00 | 0.00 | 74 | 1007.8 |
| 20260906020726 | 20 | 310 | 4.8 | 11.3 | 0.00 | 0.00 | 0.00 | 72 | 1007.8 |
| 20260906015723 | 21 | 331 | 3.2 | 6.4 | 0.00 | 0.00 | 0.00 | 69 | 1007.7 |
| 20260906015217 | 21 | 331 | 1.6 | 6.4 | 0.00 | 0.00 | 0.00 | 66 | 1007.8 |
| 20260906014715 | 22 | 331 | 1.6 | 6.4 | 0.00 | 0.00 | 0.00 | 65 | 1007.8 |
| 20260906014219 | 22 | 331 | 3.2 | 8.0 | 0.00 | 0.00 | 0.00 | 63 | 1007.6 |
| 20260906013719 | 22 | 331 | 3.2 | 8.0 | 0.00 | 0.00 | 0.00 | 62 | 1007.6 |
| 20260906013211 | 23 | 333 | 3.2 | 8.0 | 0.00 | 0.00 | 0.00 | 60 | 1007.6 |
| 20260906012707 | 23 | 337 | 3.2 | 6.4 | 0.00 | 0.00 | 0.00 | 59 | 1007.7 |
| 20260906012208 | 23 | 337 | 3.2 | 6.4 | 0.00 | 0.00 | 0.00 | 58 | 1007.7 |
| 20260906011204 | 25 | 338 | 3.2 | 8.0 | 0.00 | 0.00 | 0.00 | 57 | 1007.8 |
| 20260906010704 | 25 | 338 | 3.2 | 8.0 | 0.00 | 0.00 | 0.00 | 56 | 1007.8 |
| 20260906005703 | 25 | 331 | 3.2 | 8.0 | 0.00 | 0.00 | 0.00 | 57 | 1007.7 |
| 20260906005201 | 25 | 317 | 3.2 | 8.0 | 0.00 | 0.00 | 0.00 | 58 | 1007.7 |
| 20260906004656 | 25 | 305 | 4.8 | 12.9 | 0.00 | 0.00 | 0.00 | 60 | 1007.7 |
| 20260906004155 | 25 | 348 | 6.4 | 12.9 | 0.00 | 0.00 | 0.00 | 60 | 1007.7 |
| 20260906003654 | 25 | 330 | 6.4 | 12.9 | 0.00 | 0.00 | 0.00 | 59 | 1007.7 |
| 20260906003150 | 25 | 319 | 4.8 | 11.3 | 0.00 | 0.00 | 0.00 | 58 | 1007.7 |
| 20260906002146 | 25 | 338 | 4.8 | 11.3 | 0.00 | 0.00 | 0.00 | 58 | 1007.7 |
| 20260906001649 | 25 | 326 | 4.8 | 11.3 | 0.00 | 0.00 | 0.00 | 58 | 1007.7 |
| 20260906001145 | 25 | 341 | 4.8 | 11.3 | 0.00 | 0.00 | 0.00 | 58 | 1007.7 |
| 20260906000644 | 25 | 334 | 6.4 | 11.3 | 0.00 | 0.00 | 0.00 | 58 | 1007.7 |
| 20260906000142 | 26 | 323 | 4.8 | 11.3 | 0.00 | 0.00 | 0.00 | 57 | 1007.7 |
| 20260905235142 | 26 | 342 | 6.4 | 12.9 | 0.00 | 0.00 | 0.00 | 56 | 1007.7 |
| 20260905234641 | 26 | 328 | 4.8 | 12.9 | 0.00 | 0.00 | 0.00 | 56 | 1007.7 |
| 20260905234142 | 26 | 320 | 6.4 | 11.3 | 0.00 | 0.00 | 0.00 | 55 | 1007.6 |
| 20260905233640 | 26 | 303 | 6.4 | 12.9 | 0.00 | 0.00 | 0.00 | 55 | 1007.6 |
| 20260905233140 | 26 | 313 | 8.0 | 14.5 | 0.00 | 0.00 | 0.00 | 54 | 1007.6 |
| 20260905232637 | 26 | 315 | 6.4 | 14.5 | 0.00 | 0.00 | 0.00 | 54 | 1007.6 |
| 20260905232137 | 26 | 311 | 4.8 | 9.7 | 0.00 | 0.00 | 0.00 | 53 | 1007.7 |
| 20260905231634 | 26 | 323 | 6.4 | 14.5 | 0.00 | 0.00 | 0.00 | 54 | 1007.7 |
| 20260905231133 | 26 | 13 | 6.4 | 14.5 | 0.00 | 0.00 | 0.00 | 54 | 1007.9 |
| 20260905230631 | 27 | 315 | 6.4 | 12.9 | 0.00 | 0.00 | 0.00 | 54 | 1007.9 |
| 20260905230130 | 27 | 339 | 4.8 | 9.7 | 0.00 | 0.00 | 0.00 | 55 | 1007.9 |
| 20260905225627 | 27 | 329 | 4.8 | 11.3 | 0.00 | 0.00 | 0.00 | 55 | 1008.1 |
| 20260905225129 | 27 | 331 | 4.8 | 11.3 | 0.00 | 0.00 | 0.00 | 55 | 1008.1 |
| 20260905224625 | 27 | 64 | 4.8 | 9.7 | 0.00 | 0.00 | 0.00 | 55 | 1008.1 |
| 20260905224125 | 27 | 319 | 6.4 | 14.5 | 0.00 | 0.00 | 0.00 | 56 | 1008.1 |
| 20260905223624 | 26 | 273 | 6.4 | 14.5 | 0.00 | 0.00 | 0.00 | 56 | 1008.1 |
| 20260905222125 | 27 | 323 | 4.8 | 9.7 | 0.00 | 0.00 | 0.00 | 53 | 1008.2 |
| 20260905221624 | 27 | 323 | 4.8 | 9.7 | 0.00 | 0.00 | 0.00 | 54 | 1008.2 |
| 20260905221124 | 27 | 323 | 4.8 | 9.7 | 0.00 | 0.00 | 0.00 | 54 | 1008.3 |
| 20260905220621 | 27 | 329 | 4.8 | 9.7 | 0.00 | 0.00 | 0.00 | 52 | 1008.3 |
| 20260905220120 | 28 | 331 | 4.8 | 9.7 | 0.00 | 0.00 | 0.00 | 52 | 1008.3 |
| 20260905215620 | 28 | 333 | 3.2 | 9.7 | 0.00 | 0.00 | 0.00 | 52 | 1008.3 |
| 20260905215122 | 27 | 32 | 3.2 | 9.7 | 0.00 | 0.00 | 0.00 | 52 | 1008.3 |
| 20260905214117 | 27 | 317 | 4.8 | 8.0 | 0.00 | 0.00 | 0.00 | 53 | 1008.5 |
| 20260905213617 | 27 | 321 | 4.8 | 11.3 | 0.00 | 0.00 | 0.00 | 53 | 1008.5 |
| 20260905213116 | 27 | 15 | 4.8 | 11.3 | 0.00 | 0.00 | 0.00 | 51 | 1008.5 |
| 20260905212111 | 27 | 322 | 4.8 | 11.3 | 0.00 | 0.00 | 0.00 | 52 | 1008.6 |
| 20260905211609 | 27 | 307 | 4.8 | 11.3 | 0.00 | 0.00 | 0.00 | 51 | 1008.6 |
| 20260905211107 | 28 | 355 | 4.8 | 11.3 | 0.00 | 0.00 | 0.00 | 51 | 1008.6 |
| 20260905210607 | 28 | 338 | 4.8 | 9.7 | 0.00 | 0.00 | 0.00 | 50 | 1008.6 |
| 20260905210106 | 28 | 341 | 4.8 | 9.7 | 0.00 | 0.00 | 0.00 | 49 | 1008.6 |
| 20260905205607 | 28 | 84 | 3.2 | 9.7 | 0.00 | 0.00 | 0.00 | 49 | 1008.7 |
| 20260905205105 | 28 | 335 | 3.2 | 9.7 | 0.00 | 0.00 | 0.00 | 50 | 1008.7 |
| 20260905204605 | 28 | 62 | 4.8 | 12.9 | 0.00 | 0.00 | 0.00 | 50 | 1008.7 |
| 20260905204104 | 28 | 42 | 4.8 | 12.9 | 0.00 | 0.00 | 0.00 | 50 | 1008.9 |
| 20260905203604 | 28 | 58 | 4.8 | 12.9 | 0.00 | 0.00 | 0.00 | 46 | 1008.9 |
| 20260905202607 | 28 | 59 | 4.8 | 11.3 | 0.00 | 0.00 | 0.00 | 49 | 1008.9 |
| 20260905201058 | 28 | 61 | 8.0 | 14.5 | 0.00 | 0.00 | 0.00 | 49 | 1008.9 |
| 20260905200558 | 27 | 49 | 6.4 | 16.1 | 0.00 | 0.00 | 0.00 | 51 | 1008.9 |
| 20260905200057 | 27 | 40 | 3.2 | 16.1 | 0.00 | 0.00 | 0.00 | 53 | 1008.9 |
| 20260905195555 | 27 | 341 | 4.8 | 16.1 | 0.00 | 0.00 | 0.00 | 53 | 1009.2 |
| 20260905195056 | 26 | 125 | 6.4 | 16.1 | 0.00 | 0.00 | 0.00 | 54 | 1009.2 |
| 20260905194555 | 26 | 134 | 6.4 | 16.1 | 0.00 | 0.00 | 0.00 | 54 | 1009.2 |
| 20260905194056 | 26 | 115 | 4.8 | 16.1 | 0.00 | 0.00 | 0.00 | 53 | 1009.2 |
| 20260905193555 | 26 | 134 | 4.8 | 12.9 | 0.00 | 0.00 | 0.00 | 54 | 1009.2 |
| 20260905193058 | 26 | 126 | 4.8 | 12.9 | 0.00 | 0.00 | 0.00 | 54 | 1009.2 |
| 20260905191044 | 26 | 66 | 6.4 | 16.1 | 0.00 | 0.00 | 0.00 | 55 | 1009.2 |
| 20260905190545 | 26 | 129 | 4.8 | 16.1 | 0.00 | 0.00 | 0.00 | 55 | 1009.2 |
| 20260905190044 | 26 | 153 | 3.2 | 8.0 | 0.00 | 0.00 | 0.00 | 56 | 1009.2 |
| 20260905185541 | 26 | 108 | 3.2 | 11.3 | 0.00 | 0.00 | 0.00 | 56 | 1009.2 |
| 20260905185041 | 25 | 76 | 3.2 | 11.3 | 0.00 | 0.00 | 0.00 | 58 | 1009.2 |
| 20260905184541 | 25 | 101 | 3.2 | 12.9 | 0.00 | 0.00 | 0.00 | 59 | 1009.2 |
| 20260905184038 | 25 | 133 | 4.8 | 12.9 | 0.00 | 0.00 | 0.00 | 60 | 1009.2 |
| 20260905183037 | 25 | 128 | 4.8 | 12.9 | 0.00 | 0.00 | 0.00 | 62 | 1009.2 |
| 20260905182536 | 25 | 67 | 4.8 | 11.3 | 0.00 | 0.00 | 0.00 | 62 | 1009.2 |
| 20260905182034 | 25 | 127 | 4.8 | 11.3 | 0.00 | 0.00 | 0.00 | 61 | 1009.2 |
| 20260905181534 | 25 | 88 | 4.8 | 8.0 | 0.00 | 0.00 | 0.00 | 61 | 1009.2 |
| 20260905181030 | 25 | 61 | 4.8 | 12.9 | 0.00 | 0.00 | 0.00 | 62 | 1009.2 |
| 20260905180532 | 24 | 36 | 4.8 | 12.9 | 0.00 | 0.00 | 0.00 | 62 | 1009.2 |
| 20260905180029 | 25 | 82 | 4.8 | 9.7 | 0.00 | 0.00 | 0.00 | 62 | 1009.2 |
| 20260905175528 | 24 | 48 | 3.2 | 9.7 | 0.00 | 0.00 | 0.00 | 64 | 1009.2 |
| 20260905175026 | 23 | 112 | 4.8 | 12.9 | 0.00 | 0.00 | 0.00 | 65 | 1009.2 |
| 20260905174528 | 23 | 119 | 4.8 | 12.9 | 0.00 | 0.00 | 0.00 | 65 | 1009.2 |
| 20260905174027 | 23 | 80 | 4.8 | 11.3 | 0.00 | 0.00 | 0.00 | 65 | 1009.1 |
| 20260905173520 | 23 | 70 | 4.8 | 11.3 | 0.00 | 0.00 | 0.00 | 65 | 1009.1 |
| 20260905173018 | 23 | 61 | 4.8 | 8.0 | 0.00 | 0.00 | 0.00 | 66 | 1009.1 |
| 20260905172514 | 23 | 65 | 3.2 | 8.0 | 0.00 | 0.00 | 0.00 | 67 | 1009.1 |
| 20260905172013 | 23 | 69 | 3.2 | 8.0 | 0.00 | 0.00 | 0.00 | 68 | 1009.1 |
| 20260905171009 | 22 | 56 | 3.2 | 8.0 | 0.00 | 0.00 | 0.00 | 69 | 1009.1 |
| 20260905170509 | 22 | 80 | 3.2 | 8.0 | 0.00 | 0.00 | 0.00 | 70 | 1009.1 |
| 20260905170012 | 21 | 87 | 3.2 | 8.0 | 0.00 | 0.00 | 0.00 | 70 | 1009.0 |
| 20260905165510 | 21 | 87 | 3.2 | 8.0 | 0.00 | 0.00 | 0.00 | 72 | 1009.0 |
| 20260905165005 | 21 | 52 | 3.2 | 8.0 | 0.00 | 0.00 | 0.00 | 72 | 1009.0 |
| 20260905164505 | 21 | 49 | 4.8 | 8.0 | 0.00 | 0.00 | 0.00 | 73 | 1009.0 |
| 20260905164006 | 21 | 46 | 3.2 | 8.0 | 0.00 | 0.00 | 0.00 | 75 | 1009.0 |
| 20260905163002 | 20 | 63 | 4.8 | 9.7 | 0.00 | 0.00 | 0.00 | 78 | 1009.0 |
| 20260905162500 | 19 | 59 | 4.8 | 9.7 | 0.00 | 0.00 | 0.00 | 80 | 1009.0 |
| 20260905161955 | 19 | 63 | 4.8 | 8.0 | 0.00 | 0.00 | 0.00 | 80 | 1009.0 |
| 20260905161458 | 19 | 69 | 3.2 | 8.0 | 0.00 | 0.00 | 0.00 | 80 | 1009.0 |
| 20260905160956 | 18 | 51 | 1.6 | 8.0 | 0.00 | 0.00 | 0.00 | 82 | 1009.0 |
| 20260905160454 | 18 | 121 | 1.6 | 8.0 | 0.00 | 0.00 | 0.00 | 83 | 1009.0 |
| 20260905155451 | 17 | 65 | 3.2 | 11.3 | 0.00 | 0.00 | 0.00 | 85 | 1008.9 |
| 20260905154948 | 17 | 71 | 3.2 | 11.3 | 0.00 | 0.00 | 0.00 | 86 | 1008.9 |
| 20260905154449 | 17 | 88 | 3.2 | 11.3 | 0.00 | 0.00 | 0.00 | 86 | 1008.9 |
| 20260905153945 | 17 | 78 | 3.2 | 11.3 | 0.00 | 0.00 | 0.00 | 87 | 1008.6 |
| 20260905153445 | 17 | 72 | 3.2 | 11.3 | 0.00 | 0.00 | 0.00 | 88 | 1008.5 |
| 20260905152940 | 17 | 57 | 1.6 | 11.3 | 0.00 | 0.00 | 0.00 | 88 | 1008.5 |
| 20260905152441 | 16 | 57 | 0.0 | 8.0 | 0.00 | 0.00 | 0.00 | 90 | 1008.6 |
| 20260905151942 | 16 | 92 | 0.0 | 8.0 | 0.00 | 0.00 | 0.00 | 90 | 1008.6 |
| 20260905151439 | 16 | 285 | 0.0 | 0.0 | 0.00 | 0.00 | 0.00 | 91 | 1008.6 |
| 20260905150430 | 15 | 285 | 0.0 | 0.0 | 0.00 | 0.00 | 0.00 | 93 | 1008.5 |
| 20260905145424 | 15 | 285 | 0.0 | 0.0 | 0.00 | 0.00 | 0.00 | 94 | 1008.4 |
| 20260905144924 | 14 | 285 | 0.0 | 0.0 | 0.00 | 0.00 | 0.00 | 95 | 1008.4 |
| 20260905144426 | 13 | 285 | 0.0 | 0.0 | 0.00 | 0.00 | 0.00 | 95 | 1008.4 |
| 20260905143417 | 13 | 284 | 0.0 | 0.0 | 0.00 | 0.00 | 0.00 | 95 | 1008.2 |
| 20260905142916 | 12 | 285 | 0.0 | 0.0 | 0.00 | 0.00 | 0.00 | 95 | 1008.1 |
| 20260905142416 | 12 | 284 | 0.0 | 0.0 | 0.00 | 0.00 | 0.00 | 95 | 1007.8 |
| 20260905141914 | 12 | 284 | 0.0 | 0.0 | 0.00 | 0.00 | 0.00 | 95 | 1007.8 |
| 20260905141415 | 11 | 284 | 0.0 | 0.0 | 0.00 | 0.00 | 0.00 | 94 | 1007.8 |
| 20260905140914 | 11 | 285 | 0.0 | 0.0 | 0.00 | 0.00 | 0.00 | 94 | 1007.8 |
| 20260905140412 | 11 | 284 | 0.0 | 0.0 | 0.00 | 0.00 | 0.00 | 94 | 1007.8 |
| 20260905135909 | 11 | 284 | 0.0 | 0.0 | 0.00 | 0.00 | 0.00 | 93 | 1007.8 |
| 20260905135405 | 11 | 284 | 0.0 | 0.0 | 0.00 | 0.00 | 0.00 | 94 | 1007.8 |
| 20260905134907 | 11 | 284 | 0.0 | 0.0 | 0.00 | 0.00 | 0.00 | 93 | 1007.8 |
| 20260905133859 | 11 | 284 | 0.0 | 0.0 | 0.00 | 0.00 | 0.00 | 93 | 1007.7 |
| 20260905133358 | 11 | 284 | 0.0 | 0.0 | 0.00 | 0.00 | 0.00 | 93 | 1007.7 |
| 20260905132856 | 11 | 284 | 0.0 | 0.0 | 0.00 | 0.00 | 0.00 | 93 | 1007.7 |
| 20260905132352 | 11 | 284 | 0.0 | 0.0 | 0.00 | 0.00 | 0.00 | 93 | 1007.7 |
| 20260905131847 | 11 | 284 | 0.0 | 0.0 | 0.00 | 0.00 | 0.00 | 93 | 1007.7 |
| 20260905131349 | 11 | 284 | 0.0 | 0.0 | 0.00 | 0.00 | 0.00 | 93 | 1007.7 |
| 20260905130847 | 11 | 284 | 0.0 | 0.0 | 0.00 | 0.00 | 0.00 | 93 | 1007.7 |
| 20260905130344 | 12 | 284 | 0.0 | 0.0 | 0.00 | 0.00 | 0.00 | 93 | 1007.7 |
| 20260905125846 | 11 | 284 | 0.0 | 0.0 | 0.00 | 0.00 | 0.00 | 93 | 1007.7 |
| 20260905125340 | 11 | 284 | 0.0 | 0.0 | 0.00 | 0.00 | 0.00 | 93 | 1007.7 |
| 20260905124841 | 12 | 284 | 0.0 | 0.0 | 0.00 | 0.00 | 0.00 | 93 | 1007.7 |
| 20260905124337 | 12 | 284 | 0.0 | 0.0 | 0.00 | 0.00 | 0.00 | 93 | 1007.7 |
| 20260905123337 | 12 | 284 | 0.0 | 0.0 | 0.00 | 0.00 | 0.00 | 93 | 1007.7 |
| 20260905122834 | 12 | 284 | 0.0 | 0.0 | 0.00 | 0.00 | 0.00 | 93 | 1007.7 |
| 20260905121827 | 12 | 284 | 0.0 | 0.0 | 0.00 | 0.00 | 0.00 | 92 | 1007.7 |
| 20260905121325 | 12 | 284 | 0.0 | 0.0 | 0.00 | 0.00 | 0.00 | 92 | 1007.7 |
| 20260905120825 | 12 | 284 | 0.0 | 0.0 | 0.00 | 0.00 | 0.00 | 92 | 1007.7 |
| 20260905120324 | 12 | 284 | 0.0 | 0.0 | 0.00 | 0.00 | 0.00 | 92 | 1007.7 |
| 20260905115826 | 12 | 284 | 0.0 | 0.0 | 0.00 | 0.00 | 0.00 | 92 | 1007.7 |
| 20260905115324 | 12 | 284 | 0.0 | 0.0 | 0.00 | 0.00 | 0.00 | 92 | 1007.7 |
| 20260905114823 | 12 | 284 | 0.0 | 0.0 | 0.00 | 0.00 | 0.00 | 92 | 1007.7 |
| 20260905114321 | 12 | 284 | 0.0 | 0.0 | 0.00 | 0.00 | 0.00 | 92 | 1007.8 |
| 20260905113818 | 12 | 284 | 0.0 | 0.0 | 0.00 | 0.00 | 0.00 | 92 | 1007.8 |
| 20260905113313 | 12 | 284 | 0.0 | 0.0 | 0.00 | 0.00 | 0.00 | 92 | 1007.8 |
| 20260905112812 | 12 | 284 | 0.0 | 0.0 | 0.00 | 0.00 | 0.00 | 91 | 1007.8 |
| 20260905112311 | 12 | 284 | 0.0 | 0.0 | 0.00 | 0.00 | 0.00 | 91 | 1007.8 |
| 20260905111807 | 12 | 284 | 0.0 | 0.0 | 0.00 | 0.00 | 0.00 | 91 | 1007.8 |
| 20260905111304 | 12 | 284 | 0.0 | 0.0 | 0.00 | 0.00 | 0.00 | 91 | 1007.9 |
| 20260905110801 | 12 | 284 | 0.0 | 0.0 | 0.00 | 0.00 | 0.00 | 91 | 1007.9 |
| 20260905110302 | 12 | 284 | 0.0 | 0.0 | 0.00 | 0.00 | 0.00 | 91 | 1007.9 |
| 20260905105756 | 12 | 284 | 0.0 | 0.0 | 0.00 | 0.00 | 0.00 | 91 | 1007.9 |
| 20260905105256 | 12 | 284 | 0.0 | 0.0 | 0.00 | 0.00 | 0.00 | 91 | 1007.9 |
| 20260905104253 | 12 | 284 | 0.0 | 0.0 | 0.00 | 0.00 | 0.00 | 91 | 1008.1 |
| 20260905103751 | 12 | 284 | 0.0 | 0.0 | 0.00 | 0.00 | 0.00 | 90 | 1008.2 |
| 20260905103248 | 12 | 284 | 0.0 | 0.0 | 0.00 | 0.00 | 0.00 | 90 | 1008.2 |
| 20260905102748 | 12 | 284 | 0.0 | 0.0 | 0.00 | 0.00 | 0.00 | 90 | 1008.3 |
| 20260905101747 | 13 | 284 | 0.0 | 0.0 | 0.00 | 0.00 | 0.00 | 90 | 1008.3 |
| 20260905101242 | 13 | 284 | 0.0 | 0.0 | 0.00 | 0.00 | 0.00 | 90 | 1008.3 |
| 20260905100746 | 13 | 284 | 0.0 | 0.0 | 0.00 | 0.00 | 0.00 | 90 | 1008.3 |
| 20260905100242 | 13 | 284 | 0.0 | 0.0 | 0.00 | 0.00 | 0.00 | 89 | 1008.3 |
| 20260905095740 | 13 | 284 | 0.0 | 0.0 | 0.00 | 0.00 | 0.00 | 89 | 1008.4 |
| 20260905095233 | 13 | 284 | 0.0 | 0.0 | 0.00 | 0.00 | 0.00 | 89 | 1008.4 |
| 20260905094734 | 13 | 284 | 0.0 | 0.0 | 0.00 | 0.00 | 0.00 | 89 | 1008.4 |